Regional Weather Roundup
Issued by NWS Kansas City/Pleasant Hill, MO

Home | Current Version | Previous Version | Graphics & Text | Print | Product List | Glossary Off
Versions: 1 2 3 4 5 6 7 8 9 10 11 12 13 14 15 16 17 18 19 20 21 22 23 24 25 26 27 28 29 30 31 32 33 34 35 36 37 38 39 40 41 42 43 44 45 46 47 48 49 50

000
ASUS43 KEAX 190710
RWREAX

WEATHER ROUNDUP FOR EASTERN KANSAS AND NORTHWEST MISSOURI
NATIONAL WEATHER SERVICE KANSAS CITY/PLEASANT HILL MO
100 AM CST MON FEB 19 2018

KSZ040-057-103>105-MOZ028-029-037-043-190800-
...KANSAS CITY METROPOLITAN AREA...

CITY           SKY/WX    TMP DP  RH WIND       PRES   REMARKS
K.C. INTL      DRIZZLE   53  50  89 S17       29.66F
K.C. DOWNTOWN  CLOUDY    56  50  80 S12       29.68F
LEES SUMMIT    CLOUDY    53  52  96 S17G24    29.69F FOG
OLATHE - IXD   CLOUDY    53  52  96 S15G24    29.68F
OLATHE - OJC   CLOUDY    52  52 100 S18G24    29.68F FOG
LAWRENCE       CLOUDY    54  51  90 SE22G29   29.64F

$$

MOZ001>008-011>017-020>025-030>033-038>040-044>046-053-054-190800-
...NORTHERN AND CENTRAL MISSOURI...

CITY           SKY/WX    TMP DP  RH WIND       PRES   REMARKS
ST. JOSEPH     CLOUDY    53  50  89 S16       29.64F
MOSBY          CLOUDY    54  48  82 S7        29.69F
WARRENSBURG    CLOUDY    54  52  94 S9        29.73S
WHITEMAN AFB   CLOUDY    55  51  87 S15       29.70S
CLINTON        CLOUDY    55  52  88 S9        29.75F
SEDALIA        CLOUDY    54  52  93 S13       29.76F
WARSAW         NOT AVBL
CHILLICOTHE      N/A     52  39  61 S8        29.72F
KIRKSVILLE     CLOUDY    49  43  80 S8        29.76F

$$

MOZ041-047>049-056>058-063>065-088>090-097-190800-
...EASTERN AND SOUTHERN MISSOURI...

CITY           SKY/WX    TMP DP  RH WIND       PRES   REMARKS
ST. LOUIS INTL CLOUDY    52  46  80 S15       29.89R
SPIRIT OF STL  CLOUDY    53  47  79 S5        29.87F
COLUMBIA       CLOUDY    53  49  86 S15G23    29.80S
JEFFERSON CITY CLOUDY    53  49  86 S13       29.82S
ROLLA          CLOUDY    51  49  92 S17G28    29.86F
OSAGE BEACH    CLOUDY    52  49  89 S9        29.83F
SPRINGFIELD    CLOUDY    51  49  92 S17       29.83F
JOPLIN         CLOUDY    58  57  97 S23G35    29.78S
WEST PLAINS    CLOUDY    49  48  97 S10       29.95F FOG

$$

IAZ060-094-KSZ022-034>040-054-083-096-NEZ052-066-093-190800-
...KANSAS...SOUTHEAST NEBRASKA AND IOWA...

CITY           SKY/WX    TMP DP  RH WIND       PRES   REMARKS
TOPEKA         CLOUDY    55  53  93 S22G30    29.61F
MANHATTAN      CLOUDY    57  53  86 S23G39    29.53F
EMPORIA        CLOUDY    53  52  96 S28G38    29.60F FOG
CHANUTE        CLOUDY    56  55  97 S20G36    29.71F FOG
WICHITA        CLOUDY    62  59  90 S25G35    29.59F
OMAHA          DRIZZLE   33  31  92 N15       29.64F FOG     WCI  23
LINCOLN        LGT SNOW  32  29  88 N15       29.65S FOG     WCI  22
FALLS CITY     CLOUDY    53  47  79 S13       29.60S
LAMONI         CLOUDY    48  34  58 SE7       29.69F
DES MOINES     CLOUDY    44  33  65 SE6       29.70S

$$




USA.gov is the U.S. government's official web portal to all federal, state and local government web resources and services.